Hazen, ND

4:33 PM CDT on June 25, 2017 (GMT -0500)
Mercer County Regional

Weather History for KHZE - May, 2013

Change the Weather History Date:

Sunday, May 12, 2013

  Actual Average (KN60) Record (KN60)
Temperature  
Mean Temperature 46 °F -  
Max Temperature 73 °F 61 °F 80 °F (2001)
Min Temperature 19 °F 37 °F 27 °F (2006)
Degree Days  
Heating Degree Days 19    
Moisture  
Dew Point 21 °F    
Average Humidity 39    
Maximum Humidity 80    
Minimum Humidity 17    
Precipitation  
Precipitation 0.00 in - - ()
Sea Level Pressure  
Sea Level Pressure 30.07 in    
Wind  
Wind Speed 5 mph (South)    
Max Wind Speed 23 mph    
Max Gust Speed 31 mph    
Visibility 10 miles    
Events      
Averages and records for this station are not official NWS values.
T = Trace of Precipitation, MM = Missing Value Source: NWS Daily Summary

Daily Weather History Graph

Daily Weather History Graph

Search for Another Location

Airport or City:

Trip Planner

Search our weather history database for the weather conditions in past years. The results will help you decide how hot, cold, wet, or windy it might be!

Date:

Astronomy

May. 12, 2013 Rise Set
Actual Time 6:13 AM CDT 9:12 PM CDT
Civil Twilight 5:37 AM CDT 9:48 PM CDT
Nautical Twilight 4:51 AM CDT 10:35 PM CDT
Astronomical Twilight 3:55 AM CDT 11:31 PM CDT
Moon 8:07 AM CDT (5/12) 11:43 PM CDT (5/12)
Length of Visible Light 16h 11m
Length of Day
14h 59m
Waxing Crescent, 7% of the Moon is Illuminated
May 12
Waxing Crescent
May 17
First Quarter
May 24
Full
May 31
Last Quarter
Jun 8
New

Hourly Weather History & Observations

Time (CDT) Temp. Windchill Dew Point Humidity Pressure Visibility Wind Dir Wind Speed Gust Speed Precip Events Conditions
12:15 AM 28.4 °F 24.6 °F 15.8 °F 59% 30.24 in 10.0 mi WSW 3.5 mph - N/A   Clear
12:35 AM 28.4 °F - 15.8 °F 59% 30.24 in 10.0 mi Calm Calm - N/A   Clear
12:55 AM 28.4 °F - 15.8 °F 59% 30.24 in 10.0 mi Calm Calm - N/A   Clear
1:15 AM 26.6 °F - 15.8 °F 64% 30.23 in 10.0 mi Calm Calm - N/A   Clear
1:35 AM 24.8 °F - 15.8 °F 69% 30.23 in 10.0 mi Calm Calm - N/A   Clear
1:55 AM 23.0 °F - 15.8 °F 74% 30.23 in 10.0 mi Calm Calm - N/A   Clear
2:15 AM 23.0 °F - 15.8 °F 74% 30.24 in 10.0 mi Calm Calm - N/A   Clear
2:35 AM 23.0 °F - 15.8 °F 74% 30.23 in 10.0 mi Calm Calm - N/A   Clear
2:55 AM 23.0 °F - 15.8 °F 74% 30.23 in 10.0 mi Calm Calm - N/A   Clear
3:15 AM 23.0 °F - 15.8 °F 74% 30.23 in 10.0 mi Calm Calm - N/A   Clear
3:35 AM 21.2 °F - 14.0 °F 74% 30.22 in 10.0 mi Calm Calm - N/A   Clear
3:55 AM 23.0 °F - 15.8 °F 74% 30.22 in 10.0 mi Calm Calm - N/A   Clear
4:35 AM 23.0 °F - 14.0 °F 68% 30.21 in 10.0 mi Calm Calm - N/A   Clear
4:55 AM 21.2 °F - 14.0 °F 74% 30.20 in 10.0 mi Calm Calm - N/A   Clear
5:15 AM 19.4 °F - 14.0 °F 80% 30.20 in 10.0 mi Calm Calm - N/A   Clear
5:35 AM 19.4 °F - 14.0 °F 80% 30.19 in 10.0 mi Calm Calm - N/A   Clear
5:55 AM 23.0 °F - 15.8 °F 74% 30.19 in 10.0 mi Calm Calm - N/A   Clear
6:15 AM 19.4 °F - 14.0 °F 80% 30.19 in 10.0 mi Calm Calm - N/A   Clear
6:35 AM 23.0 °F - 15.8 °F 74% 30.19 in 10.0 mi Calm Calm - N/A   Clear
6:55 AM 23.0 °F 18.4 °F 15.8 °F 74% 30.19 in 10.0 mi ENE 3.5 mph - N/A   Clear
7:15 AM 26.6 °F 22.6 °F 17.6 °F 69% 30.19 in 10.0 mi East 3.5 mph - N/A   Clear
7:35 AM 32.0 °F 28.7 °F 19.4 °F 60% 30.18 in 10.0 mi NE 3.5 mph - N/A   Clear
7:55 AM 32.0 °F - 19.4 °F 60% 30.19 in 10.0 mi Calm Calm - N/A   Clear
8:15 AM 35.6 °F 32.8 °F 19.4 °F 52% 30.19 in 10.0 mi NE 3.5 mph - N/A   Clear
8:35 AM 39.2 °F 37.0 °F 21.2 °F 49% 30.18 in 10.0 mi East 3.5 mph - N/A   Clear
8:55 AM 48.2 °F - 19.4 °F 32% 30.17 in 10.0 mi SSW 8.1 mph - N/A   Clear
9:15 AM 50.0 °F - 17.6 °F 28% 30.17 in 10.0 mi SSW 10.4 mph - N/A   Clear
9:35 AM 50.0 °F - 17.6 °F 28% 30.16 in 10.0 mi South 12.7 mph 16.1 mph N/A   Clear
9:55 AM 53.6 °F - 17.6 °F 24% 30.15 in 10.0 mi SSW 13.8 mph - N/A   Clear
10:15 AM 55.4 °F - 15.8 °F 21% 30.14 in 10.0 mi South 11.5 mph - N/A   Clear
10:35 AM 57.2 °F - 17.6 °F 21% 30.14 in 10.0 mi South 15.0 mph 19.6 mph N/A   Clear
10:55 AM 57.2 °F - 19.4 °F 23% 30.13 in 10.0 mi South 10.4 mph 17.3 mph N/A   Clear
11:15 AM 59.0 °F - 19.4 °F 22% 30.13 in 10.0 mi SSW 10.4 mph 18.4 mph N/A   Clear
11:35 AM 59.0 °F - 19.4 °F 22% 30.12 in 10.0 mi SW 9.2 mph - N/A   Clear
11:55 AM 62.6 °F - 19.4 °F 19% 30.12 in 10.0 mi SSW 6.9 mph - N/A   Clear
12:15 PM 60.8 °F - 17.6 °F 19% 30.11 in 10.0 mi South 5.8 mph - N/A   Clear
12:35 PM 62.6 °F - 17.6 °F 18% 30.09 in 10.0 mi SSW 8.1 mph 16.1 mph N/A   Clear
12:55 PM 64.4 °F - 19.4 °F 18% 30.08 in 10.0 mi South 12.7 mph 16.1 mph N/A   Clear
1:15 PM 64.4 °F - 19.4 °F 18% 30.08 in 10.0 mi South 10.4 mph - N/A   Clear
1:35 PM 66.2 °F - 21.2 °F 18% 30.07 in 10.0 mi South 10.4 mph 19.6 mph N/A   Clear
1:55 PM 66.2 °F - 21.2 °F 18% 30.06 in 10.0 mi SSW 6.9 mph - N/A   Clear
2:15 PM 66.2 °F - 23.0 °F 19% 30.05 in 10.0 mi SE 9.2 mph 16.1 mph N/A   Clear
2:35 PM 68.0 °F - 24.8 °F 20% 30.04 in 10.0 mi SW 6.9 mph - N/A   Clear
2:55 PM 68.0 °F - 24.8 °F 20% 30.03 in 10.0 mi SSW 4.6 mph - N/A   Clear
3:15 PM 68.0 °F - 24.8 °F 20% 30.03 in 10.0 mi South 9.2 mph 16.1 mph N/A   Clear
3:35 PM 68.0 °F - 24.8 °F 20% 30.01 in 10.0 mi SSE 6.9 mph - N/A   Clear
3:55 PM 69.8 °F - 24.8 °F 18% 30.00 in 10.0 mi SE 10.4 mph - N/A   Clear
4:15 PM 71.6 °F - 24.8 °F 17% 29.99 in 10.0 mi SSE 9.2 mph - N/A   Clear
4:35 PM 71.6 °F - 24.8 °F 17% 29.99 in 10.0 mi South 10.4 mph 16.1 mph N/A   Clear
4:55 PM 71.6 °F - 24.8 °F 17% 29.98 in 10.0 mi SSE 6.9 mph 17.3 mph N/A   Clear
5:15 PM 73.4 °F - 26.6 °F 18% 29.97 in 10.0 mi SW 9.2 mph 16.1 mph N/A   Clear
5:35 PM 71.6 °F - 24.8 °F 17% 29.96 in 10.0 mi South 6.9 mph - N/A   Clear
5:55 PM 71.6 °F - 24.8 °F 17% 29.95 in 10.0 mi SSW 8.1 mph - N/A   Clear
6:15 PM 71.6 °F - 24.8 °F 17% 29.94 in 10.0 mi South 8.1 mph - N/A   Clear
6:35 PM 73.4 °F - 26.6 °F 18% 29.94 in 10.0 mi SSW 6.9 mph - N/A   Clear
6:55 PM 71.6 °F - 26.6 °F 19% 29.92 in 10.0 mi SSE 9.2 mph - N/A   Clear
7:15 PM 69.8 °F - 28.4 °F 21% 29.92 in 10.0 mi South 8.1 mph - N/A   Clear
7:35 PM 69.8 °F - 30.2 °F 23% 29.91 in 10.0 mi SSE 6.9 mph - N/A   Clear
7:55 PM 68.0 °F - 28.4 °F 23% 29.91 in 10.0 mi SSE 8.1 mph - N/A   Clear
8:15 PM 68.0 °F - 30.2 °F 24% 29.90 in 10.0 mi SE 6.9 mph - N/A   Clear
8:35 PM 66.2 °F - 32.0 °F 28% 29.89 in 10.0 mi SE 9.2 mph - N/A   Clear
8:55 PM 64.4 °F - 32.0 °F 30% 29.88 in 10.0 mi SE 10.4 mph - N/A   Clear
9:15 PM 64.4 °F - 30.2 °F 28% 29.87 in 10.0 mi SSE 12.7 mph - N/A   Clear
9:35 PM 64.4 °F - 28.4 °F 26% 29.87 in 10.0 mi SSE 15.0 mph - N/A   Clear
9:55 PM 64.4 °F - 28.4 °F 26% 29.87 in 10.0 mi SSE 15.0 mph 19.6 mph N/A   Scattered Clouds
10:15 PM 64.4 °F - 28.4 °F 26% 29.86 in 10.0 mi SSE 17.3 mph 21.9 mph N/A   Partly Cloudy
10:35 PM 64.4 °F - 28.4 °F 26% 29.85 in 10.0 mi SSE 17.3 mph - N/A   Scattered Clouds
10:55 PM 62.6 °F - 28.4 °F 27% 29.85 in 10.0 mi SSE 17.3 mph 21.9 mph N/A   Partly Cloudy
11:15 PM 62.6 °F - 28.4 °F 27% 29.84 in 10.0 mi SSE 21.9 mph 31.1 mph N/A   Partly Cloudy
11:35 PM 60.8 °F - 28.4 °F 29% 29.82 in 10.0 mi South 23.0 mph 27.6 mph N/A   Clear
11:55 PM 60.8 °F - 28.4 °F 29% 29.82 in 10.0 mi South 20.7 mph 27.6 mph N/A   Clear